| time (UTC) | temp F | wind direction | speed MPH | gust MPH | rain 1hr in | rain 24hr in | rain mn in | humidity % | barometer mb |
| 20260505090052 | 37 | 0 | 0.0 | 2.0 | 0.02 | 0.05 | 0.04 | 97 | 1015.0 |
| 20260505084550 | 37 | 0 | 0.0 | 3.0 | 0.02 | 0.05 | 0.04 | 97 | 1015.2 |
| 20260505083051 | 37 | 279 | 0.0 | 7.0 | 0.01 | 0.04 | 0.03 | 97 | 1015.4 |
| 20260505081605 | 37 | 276 | 2.0 | 6.0 | 0.00 | 0.03 | 0.02 | 97 | 1015.6 |
| 20260505074551 | 37 | 285 | 1.0 | 8.0 | 0.02 | 0.03 | 0.02 | 97 | 1015.8 |
| 20260505073105 | 37 | 274 | 2.0 | 6.0 | 0.02 | 0.03 | 0.02 | 97 | 1015.8 |
| 20260505071557 | 38 | 302 | 2.0 | 7.0 | 0.03 | 0.03 | 0.02 | 97 | 1016.0 |
| 20260505070058 | 38 | 304 | 1.0 | 4.0 | 0.01 | 0.01 | 0.00 | 97 | 1015.8 |
| 20260505064552 | 38 | 0 | 1.0 | 6.0 | 0.01 | 0.01 | 0.01 | 97 | 1015.8 |
| 20260505063100 | 37 | 280 | 2.0 | 7.0 | 0.01 | 0.01 | 0.01 | 97 | 1016.0 |
| 20260505061552 | 38 | 0 | 1.0 | 6.0 | 0.00 | 0.00 | 0.00 | 97 | 1016.3 |
| 20260505060055 | 37 | 307 | 2.0 | 4.0 | 0.00 | 0.00 | 0.00 | 97 | 1016.3 |
| 20260505054554 | 37 | 296 | 2.0 | 7.0 | 0.00 | 0.00 | 0.00 | 97 | 1016.5 |
| 20260505053059 | 37 | 277 | 3.0 | 7.0 | 0.00 | 0.00 | 0.00 | 97 | 1016.5 |
| 20260505051552 | 36 | 277 | 3.0 | 7.0 | 0.00 | 0.00 | 0.00 | 97 | 1016.6 |
| 20260505041553 | 37 | 316 | 3.0 | 7.0 | 0.00 | 0.00 | 0.00 | 96 | 1016.7 |
| 20260505040056 | 37 | 291 | 2.0 | 9.0 | 0.00 | 0.00 | 0.00 | 96 | 1016.7 |
| 20260505034552 | 37 | 266 | 4.0 | 10.0 | 0.00 | 0.00 | 0.00 | 96 | 1016.6 |
| 20260505033053 | 38 | 307 | 4.0 | 9.0 | 0.00 | 0.00 | 0.00 | 96 | 1016.5 |
| 20260505031554 | 38 | 273 | 5.0 | 9.0 | 0.00 | 0.00 | 0.00 | 95 | 1016.1 |
| 20260505030049 | 38 | 277 | 4.0 | 8.0 | 0.00 | 0.00 | 0.00 | 95 | 1016.2 |
| 20260505024555 | 38 | 292 | 4.0 | 7.0 | 0.00 | 0.00 | 0.00 | 95 | 1016.2 |
| 20260505023052 | 38 | 302 | 4.0 | 9.0 | 0.00 | 0.00 | 0.00 | 95 | 1016.4 |
| 20260505021553 | 39 | 291 | 4.0 | 8.0 | 0.00 | 0.00 | 0.00 | 94 | 1016.4 |
| 20260505020054 | 39 | 300 | 2.0 | 4.0 | 0.00 | 0.00 | 0.00 | 94 | 1016.6 |
| 20260505014552 | 40 | 280 | 3.0 | 7.0 | 0.00 | 0.00 | 0.00 | 94 | 1016.7 |
| 20260505013051 | 40 | 275 | 2.0 | 7.0 | 0.00 | 0.00 | 0.00 | 94 | 1016.6 |
| 20260505011549 | 40 | 309 | 3.0 | 8.0 | 0.00 | 0.00 | 0.00 | 93 | 1016.8 |
| 20260505010110 | 40 | 297 | 2.0 | 7.0 | 0.00 | 0.00 | 0.00 | 93 | 1016.9 |
| 20260505004550 | 41 | 292 | 4.0 | 9.0 | 0.00 | 0.00 | 0.00 | 92 | 1016.9 |
| 20260505003053 | 41 | 286 | 3.0 | 7.0 | 0.00 | 0.00 | 0.00 | 92 | 1016.8 |
| 20260505001552 | 41 | 333 | 2.0 | 7.0 | 0.00 | 0.00 | 0.00 | 91 | 1017.0 |
| 20260505000050 | 42 | 295 | 2.0 | 8.0 | 0.00 | 0.00 | 0.00 | 90 | 1016.9 |
| 20260504234549 | 42 | 304 | 2.0 | 9.0 | 0.00 | 0.00 | 0.00 | 89 | 1017.0 |
| 20260504233052 | 42 | 288 | 2.0 | 8.0 | 0.00 | 0.00 | 0.00 | 88 | 1016.9 |
| 20260504231557 | 43 | 293 | 2.0 | 10.0 | 0.00 | 0.00 | 0.00 | 86 | 1016.9 |
| 20260504230055 | 44 | 306 | 2.0 | 9.0 | 0.00 | 0.00 | 0.00 | 86 | 1016.7 |
| 20260504224549 | 43 | 281 | 2.0 | 8.0 | 0.00 | 0.00 | 0.00 | 85 | 1017.1 |
| 20260504223059 | 44 | 287 | 2.0 | 8.0 | 0.00 | 0.00 | 0.00 | 82 | 1017.2 |
| 20260504221603 | 45 | 292 | 3.0 | 10.0 | 0.00 | 0.00 | 0.00 | 82 | 1017.4 |
| 20260504220049 | 45 | 287 | 3.0 | 8.0 | 0.00 | 0.00 | 0.00 | 82 | 1017.4 |
| 20260504214600 | 45 | 346 | 3.0 | 10.0 | 0.00 | 0.00 | 0.00 | 81 | 1017.5 |
| 20260504213104 | 44 | 278 | 4.0 | 10.0 | 0.00 | 0.00 | 0.00 | 82 | 1017.8 |
| 20260504211550 | 45 | 196 | 2.0 | 9.0 | 0.00 | 0.00 | 0.00 | 82 | 1017.8 |
| 20260504210052 | 45 | 273 | 2.0 | 5.0 | 0.00 | 0.00 | 0.00 | 84 | 1017.8 |
| 20260504204600 | 43 | 298 | 2.0 | 7.0 | 0.00 | 0.00 | 0.00 | 83 | 1017.7 |
| 20260504203053 | 45 | 315 | 2.0 | 9.0 | 0.00 | 0.00 | 0.00 | 80 | 1017.8 |
| 20260504201549 | 45 | 252 | 2.0 | 9.0 | 0.00 | 0.00 | 0.00 | 83 | 1017.8 |
| 20260504200053 | 43 | 0 | 0.0 | 6.0 | 0.00 | 0.00 | 0.00 | 86 | 1017.8 |
| 20260504194558 | 42 | 284 | 1.0 | 7.0 | 0.00 | 0.00 | 0.00 | 87 | 1017.9 |
| 20260504193057 | 41 | 24 | 2.0 | 11.0 | 0.00 | 0.00 | 0.00 | 88 | 1018.0 |
| 20260504191547 | 41 | 307 | 3.0 | 9.0 | 0.00 | 0.00 | 0.00 | 86 | 1017.9 |
| 20260504190054 | 41 | 0 | 1.0 | 6.0 | 0.00 | 0.00 | 0.00 | 89 | 1018.1 |
| 20260504184550 | 41 | 317 | 2.0 | 6.0 | 0.00 | 0.00 | 0.00 | 87 | 1018.1 |
| 20260504183050 | 42 | 273 | 0.0 | 5.0 | 0.00 | 0.00 | 0.00 | 88 | 1017.9 |
| 20260504181550 | 42 | 338 | 1.0 | 5.0 | 0.00 | 0.00 | 0.00 | 83 | 1018.1 |
| 20260504180050 | 40 | 0 | 1.0 | 6.0 | 0.00 | 0.00 | 0.00 | 91 | 1017.7 |
| 20260504174547 | 40 | 0 | 2.0 | 6.0 | 0.00 | 0.00 | 0.00 | 89 | 1017.6 |
| 20260504173049 | 41 | 0 | 2.0 | 9.0 | 0.00 | 0.00 | 0.00 | 85 | 1017.5 |
| 20260504171554 | 42 | 295 | 2.0 | 7.0 | 0.00 | 0.00 | 0.00 | 88 | 1017.2 |
| 20260504150107 | 37 | 269 | 1.0 | 7.0 | 0.00 | 0.00 | 0.00 | 97 | 1016.5 |